Miscellaneous Local Product
Issued by NWS Hastings, NE

Home | Current Version | Previous Version | Graphics & Text | Print | Product List | Glossary On
Versions: 1 2 3 4 5 6 7 8 9 10 11 12 13 14 15 16 17 18 19 20 21 22 23 24 25 26 27 28 29 30 31 32 33 34 35 36 37 38 39 40 41 42 43 44 45 46 47 48 49 50
000
AXUS43 KGID 311702
MISGRI

GID CWA HOURLY WEATHER ROUNDUP
NATIONAL WEATHER SERVICE HASTINGS NE
1200 PM CDT MON AUG 31 2015

NOTE: "FAIR" INDICATES FEW OR NO CLOUDS BELOW 12,000 FEET WITH NO
SIGNIFICANT WEATHER AND/OR OBSTRUCTIONS TO VISIBILITY.

...SOUTH CENTRAL NEBRASKA...

CITY           SKY/WX    TMP DP  RH WIND       PRES   REMARKS
GRAND ISLAND   SUNNY     80  67  64 S14       29.95F
HASTINGS       SUNNY     79  68  69 S10       29.95F
KEARNEY        SUNNY     81  64  57 S10       29.94F
ORD            SUNNY     81  64  56 S10       29.93R
YORK           SUNNY     77  68  73 S10       29.97S
AURORA         SUNNY     78  69  74 S12       29.96S
LEXINGTON      SUNNY     82  63  53 S13       29.95F
HOLDREGE       SUNNY     79  63  57 S8        29.95R
HEBRON         SUNNY     79  67  67 S9G16     29.97S

...NEBRASKA PANHANDLE...

CITY           SKY/WX    TMP DP  RH WIND       PRES   REMARKS
CHADRON        CLOUDY    74  54  49 N14       30.00R HAZE
ALLIANCE       CLOUDY    81  52  36 N6        30.02R
SCOTTSBLUFF    CLOUDY    81  55  40 W5        30.03R
SIDNEY         CLOUDY    80  51  36 N10       30.06R

...WESTERN AND NORTH CENTRAL NEBRASKA...

CITY           SKY/WX    TMP DP  RH WIND       PRES   REMARKS
VALENTINE      MOSUNNY   87  55  33 N14       29.91R
AINSWORTH      MOSUNNY   85  53  32 NW5       29.91F
ONEILL         SUNNY     80  64  57 SW12G18   29.92S
BROKEN BOW     SUNNY     81  63  54 SW9       29.95S
IMPERIAL       SUNNY     85  54  34 NE8       29.97S
NORTH PLATTE   SUNNY     79  58  48 VRB3      29.95S
MCCOOK         SUNNY     80  59  48 SE7       29.94F

...EASTERN NEBRASKA...

CITY           SKY/WX    TMP DP  RH WIND       PRES   REMARKS
NORFOLK        SUNNY     80  69  69 S14       29.93S
SO SIOUX CITY  MOSUNNY   81  68  64 S16       29.94S
TEKAMAH        SUNNY     81  71  71 S10       29.95F
COLUMBUS       MOSUNNY   79  66  65 S13       29.95S
ALBION         SUNNY     77  67  70 S12       29.95R
OMAHA EPPLEY   MOSUNNY   80  70  71 S8        29.97S
OFFUTT AFB     SUNNY     80  71  74 SE10      29.96F
MILLARD        MOSUNNY   80  71  73 S9        29.96F
LINCOLN        MOSUNNY   82  69  64 S13       29.96F
NEBRASKA CITY  MOSUNNY   80  68  65 S9        29.98F
BEATRICE       SUNNY     80  69  68 S10       29.98S
FALLS CITY     PTSUNNY   84  71  65 S9        29.98S

...NORTHERN KANSAS...

CITY           SKY/WX    TMP DP  RH WIND       PRES   REMARKS
GOODLAND       SUNNY     87  53  31 N9        29.98S
HILL CITY      SUNNY     87  58  37 SW9       29.94S
NORTON         SUNNY     82  57  42 S8        29.94S
PHILLIPSBURG   SUNNY     84  63  48 S7        29.94S
SMITH CENTER   SUNNY     81  66  61 SE12      29.94F
HAYS           SUNNY     88  61  40 S16G23    29.94S
RUSSELL        SUNNY     88  62  41 S17       29.93S
CONCORDIA      SUNNY     83  68  60 S15       29.96S
SALINA         SUNNY     88  66  48 SE13      29.94F HX  90
TOPEKA         MOSUNNY   84  69  60 S7        29.98F



USA.gov is the U.S. government's official web portal to all federal, state and local government web resources and services.